ITY925 LIPZ-LIBP

Flight info

Callsign ITY925
Flight time 0h 38m
Altitude 31000
Route CHI DCT ARDAM DCT BELOV DCT LAPVO/N0375F190 Y579 INKIM
Aircraft A320/M-SDE3FGHIRWY/LB1

Departure

Time 2026-04-23 18:52
Airport Venice Marco Polo Airport (LIPZ)

Arrival

Time 2026-04-23 19:30
Airport Abruzzo Airport (LIBP)
Time Latitude Longitude Altitude Speed Heading
2026-04-23 18:25 45.50702 12.34494 15 ft 0 kts 222°
2026-04-23 18:42 45.50706 12.34500 12 ft 4 kts 222°
2026-04-23 18:42 45.50724 12.34523 13 ft 2 kts 222°
2026-04-23 18:43 45.50736 12.34538 12 ft 2 kts 199°
2026-04-23 18:43 45.50751 12.34540 12 ft 2 kts 155°
2026-04-23 18:43 45.50760 12.34534 12 ft 1 kts 138°
2026-04-23 18:43 45.50763 12.34531 15 ft 0 kts 133°
2026-04-23 18:45 45.50760 12.34536 12 ft 4 kts 131°
2026-04-23 18:45 45.50741 12.34568 13 ft 4 kts 130°
2026-04-23 18:45 45.50725 12.34595 12 ft 4 kts 134°
2026-04-23 18:46 45.50688 12.34650 13 ft 8 kts 131°
2026-04-23 18:46 45.50655 12.34702 13 ft 6 kts 131°
2026-04-23 18:46 45.50630 12.34759 14 ft 10 kts 98°
2026-04-23 18:46 45.50677 12.34845 15 ft 10 kts 42°
2026-04-23 18:47 45.50726 12.34909 15 ft 9 kts 42°
2026-04-23 18:47 45.50773 12.34969 15 ft 9 kts 42°
2026-04-23 18:47 45.50814 12.35022 16 ft 9 kts 43°
2026-04-23 18:47 45.50854 12.35074 18 ft 6 kts 42°
2026-04-23 18:48 45.50893 12.35123 19 ft 8 kts 41°
2026-04-23 18:48 45.50932 12.35174 19 ft 9 kts 43°
2026-04-23 18:48 45.50963 12.35256 19 ft 9 kts 77°
2026-04-23 18:48 45.50976 12.35342 19 ft 11 kts 78°
2026-04-23 18:49 45.50995 12.35449 18 ft 13 kts 63°
2026-04-23 18:49 45.51064 12.35548 15 ft 15 kts 42°
2026-04-23 18:49 45.51139 12.35643 15 ft 14 kts 41°
2026-04-23 18:49 45.51209 12.35732 14 ft 14 kts 41°
2026-04-23 18:50 45.51257 12.35793 12 ft 14 kts 42°
2026-04-23 18:50 45.51322 12.35909 14 ft 9 kts 59°
2026-04-23 18:50 45.51298 12.35981 13 ft 9 kts 132°
2026-04-23 18:50 45.51257 12.36044 13 ft 8 kts 133°
2026-04-23 18:51 45.51196 12.36058 12 ft 12 kts 202°
2026-04-23 18:51 45.51120 12.35965 10 ft 21 kts 221°
2026-04-23 18:51 45.50819 12.35579 18 ft 94 kts 222°
2026-04-23 18:51 45.50171 12.34747 20 ft 152 kts 223°
2026-04-23 18:52 45.49403 12.33728 663 ft 148 kts 223°
2026-04-23 18:52 45.48640 12.32763 1419 ft 148 kts 224°
2026-04-23 18:52 45.47821 12.31719 1870 ft 167 kts 225°
2026-04-23 18:52 45.46915 12.30561 2306 ft 189 kts 225°
2026-04-23 18:53 45.45887 12.29239 2821 ft 206 kts 224°
2026-04-23 18:53 45.44795 12.27854 3575 ft 213 kts 223°
2026-04-23 18:53 45.43671 12.26427 4372 ft 220 kts 223°
2026-04-23 18:53 45.42518 12.24945 5139 ft 226 kts 223°
2026-04-23 18:54 45.41332 12.23417 5886 ft 234 kts 223°
2026-04-23 18:54 45.40022 12.21936 6459 ft 252 kts 207°
2026-04-23 18:54 45.38260 12.21364 6856 ft 274 kts 175°
2026-04-23 18:54 45.36322 12.21732 7523 ft 286 kts 169°
2026-04-23 18:55 45.34332 12.22180 8368 ft 292 kts 169°
2026-04-23 18:55 45.32306 12.22638 9235 ft 298 kts 168°
2026-04-23 18:55 45.30236 12.23101 10109 ft 303 kts 168°
2026-04-23 18:55 45.28093 12.23579 10556 ft 323 kts 168°
2026-04-23 18:56 45.26586 12.23915 10756 ft 339 kts 168°
2026-04-23 18:56 45.23384 12.24623 11403 ft 358 kts 168°
2026-04-23 18:56 45.20899 12.25166 12166 ft 364 kts 168°
2026-04-23 18:56 45.18373 12.25717 12960 ft 368 kts 168°
2026-04-23 18:57 45.15828 12.26270 13735 ft 372 kts 168°
2026-04-23 18:57 45.13254 12.26827 14442 ft 376 kts 168°
2026-04-23 18:57 45.10651 12.27389 15143 ft 380 kts 168°
2026-04-23 18:57 45.08059 12.28115 15834 ft 381 kts 161°
2026-04-23 18:58 45.05582 12.29440 16493 ft 381 kts 151°
2026-04-23 18:58 45.03267 12.31285 17148 ft 384 kts 147°
2026-04-23 18:58 45.00952 12.33208 17805 ft 388 kts 147°
2026-04-23 18:58 44.98613 12.35142 18461 ft 392 kts 147°
2026-04-23 18:59 44.96246 12.37090 19022 ft 396 kts 147°
2026-04-23 18:59 44.93851 12.39061 19593 ft 400 kts 147°
2026-04-23 18:59 44.91467 12.41023 20151 ft 404 kts 147°
2026-04-23 18:59 44.89026 12.43028 20717 ft 408 kts 147°
2026-04-23 19:00 44.86564 12.45045 21285 ft 411 kts 147°
2026-04-23 19:00 44.84073 12.47083 21845 ft 415 kts 147°
2026-04-23 19:00 44.81561 12.49137 22388 ft 419 kts 147°
2026-04-23 19:00 44.79032 12.51203 22917 ft 423 kts 147°
2026-04-23 19:01 44.76473 12.53291 23441 ft 427 kts 147°
2026-04-23 19:01 44.73895 12.55394 23906 ft 430 kts 147°
2026-04-23 19:01 44.71296 12.57512 24334 ft 433 kts 147°
2026-04-23 19:01 44.68679 12.59637 24764 ft 436 kts 147°
2026-04-23 19:02 44.66936 12.61049 25040 ft 438 kts 147°
2026-04-23 19:02 44.63400 12.63915 25604 ft 440 kts 147°
2026-04-23 19:02 44.60733 12.66079 26022 ft 443 kts 147°
2026-04-23 19:02 44.58060 12.68246 26416 ft 445 kts 147°
2026-04-23 19:03 44.55373 12.70417 26812 ft 447 kts 147°
2026-04-23 19:03 44.52757 12.72778 27191 ft 447 kts 142°
2026-04-23 19:03 44.50207 12.75285 27572 ft 449 kts 142°
2026-04-23 19:03 44.47677 12.77777 27946 ft 451 kts 142°
2026-04-23 19:04 44.45106 12.80311 28322 ft 453 kts 142°
2026-04-23 19:04 44.42525 12.82854 28690 ft 455 kts 142°
2026-04-23 19:04 44.39935 12.85404 29041 ft 457 kts 142°
2026-04-23 19:04 44.37325 12.87966 29363 ft 459 kts 142°
2026-04-23 19:05 44.34703 12.90535 29676 ft 461 kts 142°
2026-04-23 19:05 44.32071 12.93107 29980 ft 463 kts 142°
2026-04-23 19:05 44.29421 12.95696 30261 ft 465 kts 142°
2026-04-23 19:05 44.26762 12.98289 30498 ft 467 kts 142°
2026-04-23 19:06 44.24086 13.00892 30732 ft 469 kts 142°
2026-04-23 19:06 44.21404 13.03498 30959 ft 471 kts 142°
2026-04-23 19:06 44.18720 13.06106 31128 ft 471 kts 142°
2026-04-23 19:07 44.13438 13.11215 31168 ft 456 kts 142°
2026-04-23 19:07 44.08235 13.16249 31169 ft 454 kts 142°
2026-04-23 19:08 44.03053 13.21268 31172 ft 454 kts 142°
2026-04-23 19:08 43.97862 13.26287 31174 ft 454 kts 142°
2026-04-23 19:09 43.93543 13.30435 31172 ft 454 kts 142°
2026-04-23 19:09 43.88344 13.35408 31170 ft 454 kts 142°
2026-04-23 19:10 43.83156 13.40383 31167 ft 453 kts 142°
2026-04-23 19:10 43.77969 13.45356 30968 ft 454 kts 142°
2026-04-23 19:10 43.75372 13.47836 30717 ft 453 kts 142°
2026-04-23 19:11 43.72775 13.50312 30495 ft 454 kts 142°
2026-04-23 19:11 43.70180 13.52776 29990 ft 451 kts 142°
2026-04-23 19:11 43.67597 13.55224 28675 ft 448 kts 142°
2026-04-23 19:11 43.65045 13.57646 27406 ft 443 kts 142°
2026-04-23 19:12 43.62556 13.60009 26230 ft 437 kts 142°
2026-04-23 19:12 43.60036 13.62400 25481 ft 431 kts 142°
2026-04-23 19:12 43.57606 13.64704 24858 ft 428 kts 142°
2026-04-23 19:12 43.55153 13.67027 24223 ft 425 kts 142°
2026-04-23 19:13 43.52721 13.69326 23577 ft 422 kts 142°
2026-04-23 19:13 43.50306 13.71605 22955 ft 419 kts 142°
2026-04-23 19:13 43.47921 13.73852 22405 ft 413 kts 142°
2026-04-23 19:13 43.45563 13.76075 21866 ft 409 kts 142°
2026-04-23 19:14 43.43230 13.78273 21363 ft 404 kts 142°
2026-04-23 19:14 43.40921 13.80445 20856 ft 400 kts 142°
2026-04-23 19:14 43.38630 13.82599 20350 ft 396 kts 142°
2026-04-23 19:14 43.36361 13.84729 19855 ft 393 kts 142°
2026-04-23 19:15 43.34103 13.86831 19362 ft 391 kts 144°
2026-04-23 19:15 43.31685 13.88557 18840 ft 393 kts 153°
2026-04-23 19:15 43.29166 13.90029 18258 ft 392 kts 153°
2026-04-23 19:15 43.26664 13.91488 17698 ft 390 kts 153°
2026-04-23 19:16 43.24177 13.92938 17155 ft 387 kts 153°
2026-04-23 19:16 43.21710 13.94378 16627 ft 384 kts 153°
2026-04-23 19:16 43.19262 13.95807 16093 ft 381 kts 153°
2026-04-23 19:17 43.14409 13.98643 15051 ft 377 kts 153°
2026-04-23 19:17 43.12001 14.00047 14542 ft 376 kts 153°
2026-04-23 19:17 43.09602 14.01447 14026 ft 374 kts 153°
2026-04-23 19:17 43.07211 14.02844 13475 ft 372 kts 153°
2026-04-23 19:18 43.04841 14.04224 12955 ft 368 kts 153°
2026-04-23 19:18 43.02496 14.05588 12454 ft 364 kts 153°
2026-04-23 19:18 43.00175 14.06935 11955 ft 361 kts 153°
2026-04-23 19:18 42.97873 14.08270 11453 ft 357 kts 153°
2026-04-23 19:19 42.93366 14.10868 10701 ft 344 kts 153°
2026-04-23 19:19 42.91206 14.12102 10575 ft 330 kts 153°
2026-04-23 19:20 42.87133 14.14437 10311 ft 306 kts 152°
2026-04-23 19:20 42.85190 14.15559 10188 ft 301 kts 152°
2026-04-23 19:20 42.83185 14.16408 10173 ft 305 kts 166°
2026-04-23 19:20 42.81053 14.16655 10180 ft 308 kts 174°
2026-04-23 19:21 42.78911 14.16759 10180 ft 308 kts 174°
2026-04-23 19:21 42.74617 14.16956 9529 ft 317 kts 175°
2026-04-23 19:21 42.72389 14.17117 8791 ft 322 kts 168°
2026-04-23 19:22 42.70349 14.18154 7936 ft 309 kts 141°
2026-04-23 19:22 42.68940 14.20240 7131 ft 296 kts 115°
2026-04-23 19:22 42.67990 14.25480 5596 ft 280 kts 99°
2026-04-23 19:23 42.67532 14.28002 5088 ft 271 kts 103°
2026-04-23 19:23 42.66940 14.30453 4475 ft 276 kts 107°
2026-04-23 19:23 42.66184 14.32881 3846 ft 282 kts 112°
2026-04-23 19:24 42.64244 14.37454 3121 ft 272 kts 124°
2026-04-23 19:24 42.62904 14.39086 3131 ft 250 kts 158°
2026-04-23 19:24 42.59985 14.38113 3185 ft 215 kts 242°
2026-04-23 19:25 42.58630 14.34677 3228 ft 201 kts 232°
2026-04-23 19:25 42.56571 14.32269 3146 ft 192 kts 223°
2026-04-23 19:26 42.54498 14.30102 2715 ft 185 kts 221°
2026-04-23 19:26 42.53509 14.29075 2461 ft 176 kts 223°
2026-04-23 19:27 42.51599 14.27088 2011 ft 170 kts 223°
2026-04-23 19:27 42.48857 14.24242 1349 ft 153 kts 221°
2026-04-23 19:28 42.47238 14.22562 928 ft 142 kts 224°
2026-04-23 19:28 42.45700 14.20966 519 ft 136 kts 218°
2026-04-23 19:29 42.44950 14.20188 350 ft 135 kts 218°
2026-04-23 19:29 42.43484 14.18672 47 ft 122 kts 219°
2026-04-23 19:30 42.42853 14.18015 51 ft 15 kts 216°
2026-04-23 19:30 42.42780 14.17950 53 ft 11 kts 209°
2026-04-23 19:30 42.42653 14.17904 54 ft 10 kts 187°
2026-04-23 19:31 42.42593 14.17904 50 ft 8 kts 162°
2026-04-23 19:31 42.42556 14.17961 53 ft 9 kts 105°
2026-04-23 19:31 42.42599 14.18039 52 ft 14 kts 37°
2026-04-23 19:31 42.42664 14.18106 50 ft 12 kts 37°
2026-04-23 19:32 42.42727 14.18172 51 ft 11 kts 37°
2026-04-23 19:32 42.42800 14.18246 50 ft 14 kts 37°
2026-04-23 19:32 42.42875 14.18324 47 ft 12 kts 37°
2026-04-23 19:32 42.42942 14.18393 48 ft 11 kts 37°
2026-04-23 19:33 42.42999 14.18458 48 ft 10 kts 51°
2026-04-23 19:33 42.43017 14.18535 45 ft 8 kts 79°
2026-04-23 19:33 42.43029 14.18652 47 ft 5 kts 110°
2026-04-23 19:34 42.43009 14.18684 47 ft 3 kts 129°
2026-04-23 19:34 42.42999 14.18699 47 ft 0 kts 128°